Simultaneous Nadir Overpasses (SNOs) Predictions

Prediction of SNOs between NOAA-20 and PACE Satellite Orbit:

Table of predicted SNOs for the next 14.0 days since TLE Epoch: 1/18/2025
Index Date (NOAA-20) Time (NOAA-20) Lat,Lon (NOAA-20) SZA (NOAA-20 ) Date (PACE) Time (PACE) Lat,Lon (PACE) SZA (PACE ) Distance(km) Time Diff (sec)
1 01/19/2025 17:53:20 79.72,-124.83 102.04 01/19/2025 17:53:30 79.71,-124.78 102.03 1.14 10
2 01/21/2025 21:29:06 -79.84, 0.12 78.20 01/21/2025 21:30:19 -79.84, 0.06 78.23 1.13 73
3 01/21/2025 22:19:44 79.62, 169.40 101.41 01/21/2025 22:19:23 79.62, 169.40 101.42 0.40 21
4 01/24/2025 01:55:31 -79.78, -65.96 78.80 01/24/2025 01:56:12 -79.78, -65.93 78.82 0.59 41
5 01/24/2025 02:46:10 79.60, 103.02 100.87 01/24/2025 02:45:17 79.59, 103.13 100.88 2.11 53
6 01/26/2025 06:21:55 -79.70,-131.79 79.47 01/26/2025 06:22:04 -79.70,-131.85 79.47 1.37 9
7 01/28/2025 09:57:42 79.87, -7.26 100.29 01/28/2025 09:58:53 79.86, -7.20 100.24 1.33 71
8 01/28/2025 10:48:19 -79.62, 162.32 80.17 01/28/2025 10:47:55 -79.62, 162.30 80.16 0.42 24
9 01/30/2025 14:24:05 79.76, -72.87 99.52 01/30/2025 14:24:43 79.76, -72.94 99.51 1.36 38



Historial Predications of SNOs between NOAA-20 and PACE
